Skip Page Navigation
NASA JPL Caltech
NASA Logo - Jet Propulsion Laboratory + View the NASA Portal
+ Near-Earth Object (NEO) Program
Search JPL
JPL Home Earth Solar System Stars & Galaxies Technology
JPL Solar System Dynamics
BODIES ORBITS EPHEMERIDES TOOLS PHYSICAL DATA DISCOVERY FAQ SITE MAP
JPL Small-Body Database Browser
Search: [ help ]  
11492 Shimose (1988 VR3)
Classification: Main-belt Asteroid          SPK-ID: 2011492
Ephemeris | Orbit Diagram | Orbital Elements | Physical Parameters | Discovery Circumstances | Close-Approach Data ]

[ show orbit diagram ]
Orbital Elements at Epoch 2457000.5 (2014-Dec-09.0) TDB
Reference: JPL 14 (heliocentric ecliptic J2000)
 Element Value Uncertainty (1-sigma)   Units 
e .203605490555217 5.6414e-08  
a 2.413974236247651 1.0109e-08 AU
q 1.922475827688793 1.3842e-07 AU
i 2.253632581560353 6.2303e-06 deg
node 183.2827711974834 0.00010713 deg
peri 194.4884533750706 0.00010807 deg
M 8.390658512053882 1.1182e-05 deg
tp 2456968.570588178366
(2014-Nov-07.07058818)
4.2539e-05 JED
period 1369.926834619172
3.75
8.6053e-06
2.356e-08
d
yr
n .2627877569097161 1.6507e-09 deg/d
Q 2.90547264480651 1.2167e-08 AU
  Orbit Determination Parameters
   # obs. used (total)      1111  
   data-arc span      9563 days (26.18 yr)  
   first obs. used      1988-11-13  
   last obs. used      2015-01-19  
   planetary ephem.      DE431  
   SB-pert. ephem.      SB431-BIG16  
   condition code      0  
   fit RMS      .5133  
   data source      ORB  
   producer      Otto Matic  
   solution date      2015-Feb-04 13:32:22  

Additional Information
 Earth MOID = .924265 AU 
 T_jup = 3.488 
[ show covariance matrix ]

Ephemeris | Orbit Diagram | Orbital Elements | Physical Parameters | Discovery Circumstances | Close-Approach Data ]

Physical Parameter Table
Parameter Symbol Value Units Sigma Reference Notes
absolute magnitude H 14.2 mag n/a MPO309242  

11492 Shimose           Discovered 1988 Nov. 13 by K. Endate and K. Watanabe at Kitami.
Nobuo Shimose (b. 1944) is well known in Yamaguchi prefecture as a professional cameraman of the first order, as well as an amateur astronomer. He is also the leader of the Yamaguchi Astronomical Society and the Hagi Astronomical Club.
NOTE: some special characters may not display properly (any characters within {} are an attempt to place the proper accent above a character)
Reference: 20030106/MPCPages.arcLast Updated: 2003-10-02

[ show close-approach data ]
Alternate Designations
 1988 VR3 = 1992 YV4 
Ephemeris | Orbit Diagram | Orbital Elements | Physical Parameters | Discovery Circumstances | Close-Approach Data ]
ABOUT SSD CREDITS/AWARDS PRIVACY/COPYRIGHT GLOSSARY LINKS
FirstGov 2015-Mar-04 18:47 UT
(server date/time)  
NASA Home Page
Site Manager:   Ryan S. Park
Webmaster  Alan B. Chamberlin